Location: Eexterzandvoort
(53.0303°N, 6.7884°E)
Time: 06:33:41
(UTC+00:00)

NOSS 3-1 (A) - Pass Details

Date: 19 May 2025
Orbit: 639 x 1568 km, 63.4° (Epoch: 20 June)

Event Time Altitude Azimuth Distance (km) Brightness Sun altitude
Exits shadow 20:50:24 10° 164° (SSE) 2,164 4.8 -9.3°
Reaches altitude 10° 20:50:25 10° 164° (SSE) 2,159 4.8 -9.3°
Maximum altitude 20:54:11 23° 113° (ESE) 1,596 4.2 -9.7°
Drops below altitude 10° 20:58:28 10° 63° (ENE) 2,497 5.6 -10.0°
Sets 21:01:41 0° 50° (NE) 3,604 6.5 -10.3°
